Location: Joplin, MO
(37.0842°N, 94.5133°W)
Time: 17:30:03
(UTC+02:00)

Transit 2A - Pass Details

Date: 02 April 2023
Orbit: 591 x 964 km, 66.7° (Epoch: 03 June)

Event Time Altitude Azimuth Distance (km) Brightness Sun altitude
Exits shadow 12:19:27 26° 296° (WNW) 1,594 7.3 -20.6°
Maximum altitude 12:20:16 27° 310° (NW) 1,575 7.4 -20.5°
Drops below altitude 10° 12:25:17 10° 7° (N) 2,579 9.1 -19.6°
Sets 12:28:19 0° 19° (NNE) 3,573 10.1 -19.0°
